MFX7563 UZTT-EETN

Flight info

Callsign MFX7563
Flight time N/A
Altitude 34000
Route DIBAD2A DIBAD N193 OGOLI Q781 ODIVA M161 MOF T793 GUBOM L158 DIMGI DCT SUNUN M869 SOSEB P607 NOTAR/N0475F340 DCT GONOS
Aircraft B763/H-SDE3FGHIM3RWXY/LB1

Departure

Time 2026-05-05 14:58
Airport Tashkent International Airport (UZTT)

Arrival

Time N/A
Airport Lennart Meri Tallinn Airport (EETN)
Time Latitude Longitude Altitude Speed Heading
2026-05-05 14:37 41.26240 69.28297 1426 ft 0 kts 352°
2026-05-05 14:47 41.26239 69.28297 1425 ft 1 kts 352°
2026-05-05 14:48 41.26225 69.28300 1425 ft 2 kts 352°
2026-05-05 14:48 41.26210 69.28303 1425 ft 2 kts 352°
2026-05-05 14:48 41.26200 69.28304 1425 ft 2 kts 353°
2026-05-05 14:48 41.26188 69.28313 1425 ft 2 kts 298°
2026-05-05 14:49 41.26185 69.28326 1425 ft 0 kts 261°
2026-05-05 14:49 41.26186 69.28334 1425 ft 0 kts 261°
2026-05-05 14:49 41.26183 69.28313 1425 ft 7 kts 261°
2026-05-05 14:50 41.26176 69.28247 1425 ft 6 kts 261°
2026-05-05 14:50 41.26170 69.28196 1425 ft 4 kts 261°
2026-05-05 14:50 41.26165 69.28154 1425 ft 5 kts 261°
2026-05-05 14:50 41.26156 69.28076 1425 ft 12 kts 261°
2026-05-05 14:51 41.26140 69.27928 1425 ft 18 kts 261°
2026-05-05 14:51 41.26122 69.27767 1425 ft 15 kts 262°
2026-05-05 14:51 41.26109 69.27641 1425 ft 12 kts 262°
2026-05-05 14:51 41.26097 69.27537 1425 ft 10 kts 261°
2026-05-05 14:52 41.26085 69.27431 1425 ft 14 kts 261°
2026-05-05 14:52 41.26070 69.27299 1425 ft 9 kts 254°
2026-05-05 14:52 41.26040 69.27275 1425 ft 2 kts 167°
2026-05-05 14:52 41.26014 69.27301 1425 ft 8 kts 141°
2026-05-05 14:53 41.25933 69.27390 1425 ft 19 kts 139°
2026-05-05 14:53 41.25835 69.27494 1425 ft 12 kts 163°
2026-05-05 14:53 41.25782 69.27456 1425 ft 7 kts 237°
2026-05-05 14:53 41.25767 69.27396 1425 ft 7 kts 261°
2026-05-05 14:54 41.25756 69.27292 1425 ft 17 kts 261°
2026-05-05 14:54 41.25734 69.27101 1425 ft 25 kts 261°
2026-05-05 14:54 41.25703 69.26833 1425 ft 30 kts 261°
2026-05-05 14:54 41.25674 69.26565 1425 ft 27 kts 262°
2026-05-05 14:55 41.25650 69.26326 1425 ft 24 kts 262°
2026-05-05 14:55 41.25626 69.26115 1425 ft 21 kts 259°
2026-05-05 14:55 41.25603 69.25944 1424 ft 16 kts 259°
2026-05-05 14:55 41.25596 69.25835 1424 ft 8 kts 285°
2026-05-05 14:56 41.25623 69.25788 1424 ft 3 kts 301°
2026-05-05 14:56 41.25625 69.25761 1425 ft 2 kts 261°
2026-05-05 14:56 41.25602 69.25742 1425 ft 5 kts 173°
2026-05-05 14:56 41.25591 69.25810 1424 ft 10 kts 83°
2026-05-05 14:57 41.25602 69.25909 1425 ft 13 kts 82°
2026-05-05 14:57 41.25624 69.26112 1425 ft 34 kts 81°
2026-05-05 14:57 41.25684 69.26640 1425 ft 85 kts 81°
2026-05-05 14:57 41.25798 69.27666 1425 ft 139 kts 81°
2026-05-05 14:58 41.25964 69.29170 1456 ft 187 kts 82°
2026-05-05 14:58 41.26152 69.30872 2113 ft 187 kts 82°
2026-05-05 14:58 41.26280 69.32502 2963 ft 171 kts 84°
2026-05-05 14:58 41.26400 69.34081 3184 ft 182 kts 82°
2026-05-05 14:59 41.26561 69.35819 3401 ft 194 kts 82°
2026-05-05 14:59 41.26742 69.37660 3581 ft 211 kts 84°
2026-05-05 14:59 41.26524 69.39648 3741 ft 231 kts 118°
2026-05-05 14:59 41.25432 69.41243 4073 ft 243 kts 152°
2026-05-05 15:00 41.23810 69.41788 4672 ft 244 kts 185°
2026-05-05 15:00 41.22696 69.41446 5086 ft 244 kts 207°
2026-05-05 15:00 41.21044 69.39436 5857 ft 245 kts 234°
2026-05-05 15:00 41.20081 69.37607 6497 ft 245 kts 235°
2026-05-05 15:01 41.19413 69.36333 6938 ft 248 kts 235°
2026-05-05 15:01 41.18720 69.35014 7611 ft 250 kts 235°
2026-05-05 15:01 41.17734 69.33134 8528 ft 256 kts 238°
2026-05-05 15:01 41.17113 69.30854 9126 ft 276 kts 266°
2026-05-05 15:02 41.17417 69.28333 9972 ft 287 kts 294°
2026-05-05 15:02 41.18262 69.25915 10880 ft 295 kts 287°
2026-05-05 15:02 41.18849 69.23220 11529 ft 313 kts 285°
2026-05-05 15:02 41.19508 69.20422 12209 ft 330 kts 287°
2026-05-05 15:03 41.20235 69.17445 12879 ft 348 kts 288°
2026-05-05 15:03 41.21021 69.14291 13506 ft 367 kts 288°
2026-05-05 15:03 41.21846 69.11015 14116 ft 386 kts 288°
2026-05-05 15:03 41.22701 69.07636 15042 ft 394 kts 288°
2026-05-05 15:04 41.23571 69.04202 16060 ft 399 kts 288°
2026-05-05 15:04 41.24458 69.00699 17000 ft 404 kts 288°
2026-05-05 15:04 41.25362 68.97125 17911 ft 410 kts 288°
2026-05-05 15:04 41.26263 68.93555 18842 ft 413 kts 288°
2026-05-05 15:05 41.28100 68.86273 20518 ft 421 kts 289°
2026-05-05 15:05 41.29031 68.82573 21283 ft 425 kts 289°
2026-05-05 15:05 41.29962 68.78867 22004 ft 429 kts 289°
2026-05-05 15:06 41.30913 68.75079 22720 ft 432 kts 289°
2026-05-05 15:06 41.31858 68.71307 23392 ft 435 kts 289°
2026-05-05 15:06 41.32818 68.67471 23980 ft 439 kts 289°
2026-05-05 15:06 41.33770 68.63660 24542 ft 442 kts 289°
2026-05-05 15:07 41.34742 68.59765 25121 ft 444 kts 289°
2026-05-05 15:07 41.35710 68.55870 25628 ft 447 kts 289°
2026-05-05 15:07 41.36687 68.51945 26074 ft 451 kts 289°
2026-05-05 15:07 41.37678 68.47947 26502 ft 454 kts 289°
2026-05-05 15:08 41.38660 68.43983 26991 ft 455 kts 289°
2026-05-05 15:08 41.39645 68.39999 27352 ft 458 kts 289°
2026-05-05 15:08 41.40643 68.35957 27702 ft 460 kts 289°
2026-05-05 15:08 41.41641 68.31908 28072 ft 462 kts 289°
2026-05-05 15:09 41.42639 68.27851 28350 ft 464 kts 289°
2026-05-05 15:09 41.43641 68.23766 28766 ft 463 kts 289°
2026-05-05 15:09 41.44628 68.19743 29201 ft 461 kts 289°
2026-05-05 15:09 41.45616 68.15700 29579 ft 460 kts 289°
2026-05-05 15:10 41.46615 68.11614 29917 ft 459 kts 289°
2026-05-05 15:10 41.47601 68.07571 30216 ft 459 kts 289°
2026-05-05 15:10 41.48576 68.03563 30546 ft 457 kts 289°
2026-05-05 15:10 41.49539 67.99599 30964 ft 453 kts 289°
2026-05-05 15:11 41.50510 67.95592 31242 ft 452 kts 289°
2026-05-05 15:11 41.51461 67.91660 31633 ft 448 kts 289°
2026-05-05 15:11 41.52425 67.87677 31862 ft 447 kts 290°
2026-05-05 15:11 41.53366 67.83772 31981 ft 445 kts 290°
2026-05-05 15:12 41.54306 67.79872 31975 ft 443 kts 290°
2026-05-05 15:12 41.56180 67.72078 31981 ft 441 kts 290°
2026-05-05 15:13 41.58044 67.64293 31984 ft 441 kts 290°
2026-05-05 15:13 41.59898 67.56525 31982 ft 441 kts 290°
2026-05-05 15:14 41.61753 67.48726 31986 ft 439 kts 290°
2026-05-05 15:14 41.63594 67.40962 31981 ft 440 kts 290°
2026-05-05 15:15 41.65418 67.33240 31984 ft 438 kts 289°
2026-05-05 15:15 41.67238 67.25511 31991 ft 438 kts 289°
2026-05-05 15:16 41.69067 67.17715 31988 ft 438 kts 289°
2026-05-05 15:16 41.70870 67.10004 31986 ft 436 kts 290°
2026-05-05 15:17 41.72678 67.02243 31984 ft 436 kts 289°
2026-05-05 15:17 41.74468 66.94535 31984 ft 435 kts 289°
2026-05-05 15:18 41.76255 66.86815 31986 ft 435 kts 289°
2026-05-05 15:18 41.78043 66.79063 31985 ft 435 kts 289°
2026-05-05 15:19 41.79826 66.71306 31982 ft 435 kts 289°
2026-05-05 15:19 41.81589 66.63605 31980 ft 434 kts 289°
2026-05-05 15:20 41.83346 66.55909 31978 ft 433 kts 289°
2026-05-05 15:20 41.85104 66.48176 31978 ft 433 kts 289°
2026-05-05 15:21 41.86852 66.40469 31975 ft 432 kts 289°
2026-05-05 15:21 41.88588 66.32779 31980 ft 433 kts 289°
2026-05-05 15:22 41.90326 66.25058 31979 ft 432 kts 289°
2026-05-05 15:22 41.92057 66.17341 31980 ft 432 kts 288°
2026-05-05 15:23 41.93777 66.09644 31980 ft 431 kts 288°
2026-05-05 15:23 41.95491 66.01950 31976 ft 432 kts 288°
2026-05-05 15:24 41.97203 65.94231 31974 ft 431 kts 289°
2026-05-05 15:24 41.98907 65.86527 31976 ft 432 kts 288°
2026-05-05 15:25 42.00611 65.78790 31972 ft 431 kts 288°
2026-05-05 15:25 42.02305 65.71078 31973 ft 431 kts 288°
2026-05-05 15:26 42.03992 65.63364 31973 ft 431 kts 288°
2026-05-05 15:26 42.05667 65.55679 31973 ft 430 kts 288°
2026-05-05 15:27 42.07348 65.47942 31973 ft 430 kts 288°
2026-05-05 15:27 42.09024 65.40268 31972 ft 429 kts 291°
2026-05-05 15:28 42.11661 65.33086 31997 ft 429 kts 299°
2026-05-05 15:28 42.14541 65.26055 31994 ft 429 kts 299°
2026-05-05 15:29 42.17410 65.19032 31993 ft 428 kts 298°
2026-05-05 15:29 42.20266 65.12018 31995 ft 429 kts 298°
2026-05-05 15:30 42.23138 65.04945 31998 ft 429 kts 298°
2026-05-05 15:30 42.25993 64.97897 31999 ft 429 kts 298°
2026-05-05 15:31 42.28845 64.90836 31998 ft 429 kts 298°
2026-05-05 15:31 42.31670 64.83827 31998 ft 429 kts 298°
2026-05-05 15:32 42.34521 64.76737 31992 ft 428 kts 298°
2026-05-05 15:32 42.37366 64.69643 31989 ft 429 kts 298°
2026-05-05 15:33 42.40194 64.62573 31980 ft 429 kts 298°
2026-05-05 15:33 42.43011 64.55515 31979 ft 429 kts 298°
2026-05-05 15:34 42.45853 64.48377 31973 ft 430 kts 298°
2026-05-05 15:34 42.48669 64.41285 31972 ft 429 kts 298°
2026-05-05 15:35 42.51482 64.34184 31969 ft 430 kts 297°
2026-05-05 15:35 42.54316 64.27016 31977 ft 430 kts 297°
2026-05-05 15:36 42.57119 64.19907 31974 ft 430 kts 297°
2026-05-05 15:36 42.60574 64.13323 31990 ft 433 kts 314°
2026-05-05 15:37 42.65179 64.08011 31968 ft 436 kts 317°
2026-05-05 15:37 42.69839 64.02760 31967 ft 435 kts 317°
2026-05-05 15:38 42.74482 63.97532 31966 ft 436 kts 317°
2026-05-05 15:38 42.79180 63.92239 31967 ft 437 kts 317°
2026-05-05 15:39 42.83831 63.86990 31967 ft 437 kts 317°
2026-05-05 15:39 42.88525 63.81683 31964 ft 437 kts 317°
2026-05-05 15:40 42.93183 63.76408 31960 ft 438 kts 317°
2026-05-05 15:40 42.97866 63.71091 31960 ft 439 kts 317°
2026-05-05 15:41 43.02543 63.65763 31956 ft 437 kts 317°
2026-05-05 15:41 43.07188 63.60461 31955 ft 438 kts 317°
2026-05-05 15:42 43.11873 63.55101 31959 ft 438 kts 317°
2026-05-05 15:42 43.16531 63.49762 31961 ft 438 kts 317°
2026-05-05 15:43 43.21186 63.44415 31959 ft 439 kts 317°
2026-05-05 15:43 43.25852 63.39043 31955 ft 439 kts 317°
2026-05-05 15:44 43.30507 63.33675 31963 ft 439 kts 316°
2026-05-05 15:44 43.35182 63.28268 31965 ft 438 kts 316°
2026-05-05 15:45 43.39820 63.22892 31959 ft 439 kts 316°
2026-05-05 15:45 43.44478 63.17480 31956 ft 439 kts 316°
2026-05-05 15:46 43.49166 63.12023 31953 ft 440 kts 316°
2026-05-05 15:46 43.53801 63.06616 31951 ft 440 kts 316°
2026-05-05 15:47 43.58495 63.01128 31944 ft 440 kts 316°
2026-05-05 15:47 43.63151 62.95677 31942 ft 441 kts 316°
2026-05-05 15:48 43.67820 62.90210 31940 ft 441 kts 316°
2026-05-05 15:48 43.72480 62.84743 31933 ft 440 kts 316°
2026-05-05 15:49 43.77140 62.79262 31932 ft 440 kts 316°
2026-05-05 15:49 43.81809 62.73758 31932 ft 440 kts 316°
2026-05-05 15:50 43.86469 62.68254 31931 ft 443 kts 316°
2026-05-05 15:50 43.91148 62.62714 31935 ft 442 kts 316°
2026-05-05 15:51 43.95837 62.57153 31937 ft 443 kts 316°
2026-05-05 15:51 44.00493 62.51615 31934 ft 444 kts 316°
2026-05-05 15:52 44.05189 62.46022 31928 ft 443 kts 316°
2026-05-05 15:52 44.09863 62.40440 31924 ft 443 kts 316°
2026-05-05 15:53 44.14506 62.34884 31920 ft 443 kts 315°
2026-05-05 15:53 44.19183 62.29274 31934 ft 444 kts 315°
2026-05-05 15:54 44.23830 62.23678 31939 ft 445 kts 315°
2026-05-05 15:54 44.28539 62.17994 31938 ft 445 kts 315°
2026-05-05 15:55 44.33190 62.12368 31938 ft 444 kts 315°
2026-05-05 15:55 44.37840 62.06731 31937 ft 445 kts 315°
2026-05-05 15:56 44.42504 62.01065 31935 ft 446 kts 315°
2026-05-05 15:56 44.47206 61.95341 31935 ft 446 kts 315°
2026-05-05 15:57 44.51875 61.89643 31933 ft 446 kts 315°
2026-05-05 15:57 44.56518 61.83965 31933 ft 446 kts 314°
2026-05-05 15:58 44.61194 61.78236 31932 ft 446 kts 315°
2026-05-05 15:58 44.65855 61.72508 31933 ft 447 kts 314°
2026-05-05 15:59 44.70516 61.66771 31930 ft 447 kts 314°
2026-05-05 15:59 44.75194 61.60999 31926 ft 447 kts 314°
2026-05-05 16:00 44.79857 61.55232 31926 ft 447 kts 314°
2026-05-05 16:00 44.84531 61.49439 31923 ft 448 kts 314°
2026-05-05 16:01 44.89164 61.43684 31929 ft 448 kts 314°
2026-05-05 16:01 44.93849 61.37856 31926 ft 449 kts 314°
2026-05-05 16:02 44.98493 61.32067 31938 ft 448 kts 314°
2026-05-05 16:02 45.03178 61.26214 31934 ft 449 kts 314°
2026-05-05 16:03 45.07827 61.20392 31930 ft 449 kts 313°
2026-05-05 16:03 45.12508 61.14516 31931 ft 450 kts 313°
2026-05-05 16:04 45.17162 61.08662 31930 ft 451 kts 313°
2026-05-05 16:04 45.21847 61.02755 31929 ft 451 kts 313°
2026-05-05 16:05 45.26525 60.96843 31923 ft 450 kts 313°
2026-05-05 16:05 45.31215 60.90900 31917 ft 452 kts 313°
2026-05-05 16:06 45.35866 60.84997 31905 ft 452 kts 313°
2026-05-05 16:06 45.40556 60.79027 31905 ft 451 kts 313°
2026-05-05 16:07 45.45221 60.73077 31904 ft 452 kts 313°
2026-05-05 16:07 45.49902 60.67088 31903 ft 453 kts 313°
2026-05-05 16:08 45.54572 60.61102 31899 ft 453 kts 313°
2026-05-05 16:08 45.59250 60.55090 31899 ft 452 kts 313°
2026-05-05 16:09 45.63912 60.49084 31900 ft 453 kts 313°
2026-05-05 16:09 45.68589 60.43045 31900 ft 452 kts 313°
2026-05-05 16:10 45.73236 60.37031 31901 ft 453 kts 313°
2026-05-05 16:10 45.77901 60.30980 31913 ft 454 kts 312°
2026-05-05 16:11 45.82544 60.24943 31908 ft 453 kts 312°
2026-05-05 16:12 45.91899 60.12735 31911 ft 455 kts 312°
2026-05-05 16:13 46.03540 59.97463 31909 ft 455 kts 312°
2026-05-05 16:13 46.08210 59.91311 31905 ft 457 kts 312°
2026-05-05 16:14 46.17525 59.78994 31900 ft 458 kts 312°
2026-05-05 16:15 46.26420 59.66820 31899 ft 458 kts 310°
2026-05-05 16:16 46.35640 59.53592 31891 ft 459 kts 310°
2026-05-05 16:17 46.42404 59.43849 31881 ft 461 kts 310°
2026-05-05 16:18 46.49204 59.34018 31882 ft 463 kts 309°
2026-05-05 16:19 46.56007 59.24146 31883 ft 463 kts 309°
2026-05-05 16:19 46.62787 59.14271 31881 ft 464 kts 310°
2026-05-05 16:20 46.71854 59.01008 31896 ft 465 kts 310°
2026-05-05 16:22 46.83213 58.84295 31884 ft 466 kts 310°
2026-05-05 16:22 46.87771 58.77557 32119 ft 469 kts 310°
2026-05-05 16:23 46.92306 58.70839 32584 ft 470 kts 310°
2026-05-05 16:23 46.94598 58.67437 32815 ft 470 kts 310°
2026-05-05 16:23 46.99136 58.60688 33297 ft 470 kts 310°
2026-05-05 16:24 47.01423 58.57280 33548 ft 469 kts 310°
2026-05-05 16:24 47.03678 58.53914 33768 ft 469 kts 310°
2026-05-05 16:25 47.10455 58.43777 33874 ft 466 kts 310°
2026-05-05 16:25 47.17171 58.33691 33857 ft 467 kts 309°
2026-05-05 16:26 47.26174 58.20108 33860 ft 467 kts 309°
2026-05-05 16:27 47.30680 58.13284 33861 ft 466 kts 309°
2026-05-05 16:27 47.35143 58.06501 33864 ft 466 kts 309°
2026-05-05 16:28 47.39628 57.99671 33863 ft 465 kts 309°
2026-05-05 16:28 47.44106 57.92833 33863 ft 464 kts 309°
2026-05-05 16:29 47.48559 57.86013 33852 ft 463 kts 309°
2026-05-05 16:29 47.53030 57.79149 33854 ft 464 kts 309°
2026-05-05 16:30 47.57497 57.72272 33851 ft 464 kts 309°
2026-05-05 16:30 47.61967 57.65375 33852 ft 465 kts 308°
2026-05-05 16:31 47.66400 57.58514 33857 ft 464 kts 308°
2026-05-05 16:31 47.70860 57.51595 33858 ft 464 kts 308°
2026-05-05 16:32 47.75325 57.44648 33859 ft 464 kts 308°
2026-05-05 16:32 47.79761 57.37729 33844 ft 465 kts 308°
2026-05-05 16:33 47.84206 57.30775 33854 ft 465 kts 308°
2026-05-05 16:33 47.88617 57.23860 33853 ft 463 kts 307°
2026-05-05 16:34 47.93049 57.16891 33849 ft 464 kts 307°
2026-05-05 16:34 47.97473 57.09917 33854 ft 463 kts 308°
2026-05-05 16:35 48.01878 57.02954 33844 ft 463 kts 307°
2026-05-05 16:35 48.06282 56.95973 33851 ft 464 kts 307°
2026-05-05 16:36 48.10711 56.88937 33839 ft 464 kts 307°
2026-05-05 16:36 48.15098 56.81946 33838 ft 463 kts 307°
2026-05-05 16:37 48.19506 56.74902 33836 ft 464 kts 307°
2026-05-05 16:37 48.23896 56.67871 33836 ft 463 kts 307°
2026-05-05 16:38 48.28269 56.60845 33837 ft 464 kts 307°
2026-05-05 16:38 48.32613 56.53849 33844 ft 465 kts 307°
2026-05-05 16:39 48.36940 56.46867 33826 ft 465 kts 307°
2026-05-05 16:39 48.41318 56.39786 33831 ft 464 kts 307°
2026-05-05 16:40 48.45699 56.32685 33836 ft 465 kts 306°
2026-05-05 16:40 48.50088 56.25550 33835 ft 464 kts 306°
2026-05-05 16:41 48.54447 56.18442 33835 ft 466 kts 306°
2026-05-05 16:41 48.58866 56.11216 33826 ft 468 kts 307°
2026-05-05 16:42 48.63244 56.04039 33837 ft 466 kts 306°
2026-05-05 16:42 48.67602 55.96872 33839 ft 467 kts 306°
2026-05-05 16:43 48.71999 55.89621 33845 ft 466 kts 307°
2026-05-05 16:43 48.76376 55.82380 33840 ft 468 kts 307°
2026-05-05 16:44 48.80745 55.75135 33840 ft 469 kts 307°
2026-05-05 16:44 48.85141 55.67825 33844 ft 470 kts 307°
2026-05-05 16:45 48.89498 55.60549 33845 ft 471 kts 307°
2026-05-05 16:45 48.93904 55.53173 33853 ft 472 kts 307°
2026-05-05 16:46 48.98320 55.45760 33858 ft 473 kts 307°
2026-05-05 16:46 49.02729 55.38337 33862 ft 473 kts 307°
2026-05-05 16:47 49.07095 55.30966 33869 ft 472 kts 306°
2026-05-05 16:47 49.11477 55.23543 33864 ft 475 kts 306°
2026-05-05 16:48 49.15895 55.16040 33869 ft 474 kts 307°
2026-05-05 16:48 49.20272 55.08587 33870 ft 474 kts 307°
2026-05-05 16:49 49.24680 55.01061 33872 ft 474 kts 307°
2026-05-05 16:49 49.29039 54.93596 33866 ft 474 kts 307°
2026-05-05 16:50 49.33443 54.86034 33873 ft 475 kts 307°
2026-05-05 16:50 49.37821 54.78494 33879 ft 475 kts 307°
2026-05-05 16:51 49.42197 54.70936 33876 ft 476 kts 307°
2026-05-05 16:51 49.46576 54.63348 33882 ft 476 kts 308°
2026-05-05 16:52 49.50951 54.55747 33879 ft 477 kts 308°
2026-05-05 16:52 49.55337 54.48105 33881 ft 478 kts 308°
2026-05-05 16:53 49.59735 54.40420 33879 ft 478 kts 308°
2026-05-05 16:53 49.64117 54.32740 33885 ft 477 kts 307°
2026-05-05 16:54 49.68439 54.25140 33890 ft 476 kts 308°
2026-05-05 16:54 49.72789 54.17470 33895 ft 477 kts 308°
2026-05-05 16:55 49.77110 54.09829 33892 ft 476 kts 308°
2026-05-05 16:55 49.81479 54.02080 33898 ft 478 kts 308°
2026-05-05 16:56 49.85793 53.94405 33902 ft 478 kts 308°
2026-05-05 16:56 49.90147 53.86636 33907 ft 480 kts 308°
2026-05-05 16:57 49.94516 53.78818 33909 ft 480 kts 308°
2026-05-05 16:57 49.98852 53.71035 33910 ft 479 kts 309°
2026-05-05 16:58 50.03183 53.63238 33901 ft 480 kts 309°
2026-05-05 16:58 50.07545 53.55361 33890 ft 479 kts 309°
2026-05-05 16:59 50.11799 53.47655 33884 ft 479 kts 309°
2026-05-05 16:59 50.16128 53.39791 33893 ft 480 kts 309°
2026-05-05 17:00 50.20432 53.31948 33894 ft 480 kts 308°
2026-05-05 17:00 50.24766 53.24027 33907 ft 479 kts 309°
2026-05-05 17:01 50.29055 53.16163 33909 ft 478 kts 309°
2026-05-05 17:01 50.33335 53.08293 33906 ft 478 kts 309°
2026-05-05 17:02 50.37620 53.00388 33910 ft 477 kts 309°
2026-05-05 17:02 50.41885 52.92497 33913 ft 478 kts 309°
2026-05-05 17:03 50.46159 52.84565 33926 ft 478 kts 309°
2026-05-05 17:03 50.50458 52.76563 33926 ft 479 kts 309°
2026-05-05 17:04 50.54690 52.68660 33928 ft 480 kts 309°
2026-05-05 17:04 50.58965 52.60652 33929 ft 479 kts 309°
2026-05-05 17:05 50.63202 52.52691 33930 ft 479 kts 309°
2026-05-05 17:05 50.67488 52.44613 33927 ft 481 kts 309°
2026-05-05 17:06 50.71751 52.36601 33930 ft 481 kts 310°
2026-05-05 17:06 50.76032 52.28556 33934 ft 479 kts 309°
2026-05-05 17:07 50.80300 52.20511 33941 ft 479 kts 309°
2026-05-05 17:07 50.84541 52.12491 33938 ft 478 kts 309°
2026-05-05 17:08 50.88760 52.04487 33943 ft 478 kts 309°
2026-05-05 17:08 50.92992 51.96433 33946 ft 479 kts 309°
2026-05-05 17:09 50.97197 51.88407 33941 ft 479 kts 309°
2026-05-05 17:09 51.01432 51.80297 33932 ft 477 kts 310°
2026-05-05 17:10 51.05627 51.72239 33934 ft 478 kts 310°
2026-05-05 17:10 51.09836 51.64129 33941 ft 481 kts 310°
2026-05-05 17:11 51.14098 51.56144 33938 ft 480 kts 316°
2026-05-05 17:11 51.19384 51.49726 33956 ft 481 kts 327°
2026-05-05 17:12 51.24907 51.43808 33952 ft 480 kts 327°
2026-05-05 17:12 51.30422 51.37922 33950 ft 478 kts 327°
2026-05-05 17:13 51.35923 51.32047 33953 ft 479 kts 326°
2026-05-05 17:13 51.41458 51.26125 33949 ft 479 kts 326°
2026-05-05 17:14 51.46902 51.20326 33951 ft 478 kts 327°
2026-05-05 17:14 51.52443 51.14482 33958 ft 477 kts 327°
2026-05-05 17:15 51.57532 51.09096 33946 ft 476 kts 327°
2026-05-05 17:15 51.63232 51.03048 33955 ft 476 kts 327°
2026-05-05 17:16 51.68961 50.98241 33970 ft 473 kts 342°
2026-05-05 17:16 51.75281 50.95364 33958 ft 475 kts 345°
2026-05-05 17:17 51.81476 50.92654 33952 ft 474 kts 346°
2026-05-05 17:17 51.87878 50.89879 33957 ft 474 kts 346°
2026-05-05 17:18 51.94132 50.87173 33954 ft 473 kts 346°
2026-05-05 17:18 52.00495 50.84451 33960 ft 472 kts 346°
2026-05-05 17:19 52.06775 50.81761 33950 ft 471 kts 346°
2026-05-05 17:19 52.13084 50.79052 33953 ft 473 kts 346°
2026-05-05 17:20 52.19402 50.76332 33957 ft 472 kts 346°
2026-05-05 17:20 52.25692 50.73616 33950 ft 471 kts 346°
2026-05-05 17:21 52.32013 50.70879 33954 ft 470 kts 346°
2026-05-05 17:22 52.41457 50.66774 33954 ft 468 kts 346°
2026-05-05 17:22 52.47733 50.64037 33953 ft 469 kts 346°
2026-05-05 17:23 52.54033 50.61280 33952 ft 469 kts 346°
2026-05-05 17:23 52.60294 50.58528 33952 ft 468 kts 346°
2026-05-05 17:24 52.66557 50.55768 33959 ft 468 kts 346°
2026-05-05 17:24 52.72460 50.53159 33953 ft 467 kts 346°
2026-05-05 17:25 52.78956 50.50280 33952 ft 466 kts 346°
2026-05-05 17:25 52.85194 50.47506 33953 ft 467 kts 346°
2026-05-05 17:26 52.91467 50.44708 33954 ft 466 kts 346°
2026-05-05 17:26 52.97681 50.41929 33955 ft 466 kts 346°
2026-05-05 17:27 53.03902 50.39137 33953 ft 465 kts 346°
2026-05-05 17:27 53.10132 50.36334 33949 ft 465 kts 346°
2026-05-05 17:28 53.16217 50.33587 33946 ft 465 kts 345°
2026-05-05 17:28 53.22452 50.30765 33946 ft 466 kts 345°
2026-05-05 17:29 53.28633 50.27958 33945 ft 465 kts 345°
2026-05-05 17:29 53.34855 50.25124 33943 ft 464 kts 345°
2026-05-05 17:30 53.41073 50.22284 33947 ft 463 kts 345°
2026-05-05 17:30 53.47256 50.19451 33947 ft 464 kts 345°
2026-05-05 17:31 53.53485 50.16708 33947 ft 464 kts 347°
2026-05-05 17:31 53.59753 50.14170 33947 ft 464 kts 346°
2026-05-05 17:32 53.65995 50.11626 33940 ft 463 kts 346°
2026-05-05 17:32 53.72243 50.09071 33943 ft 463 kts 346°
2026-05-05 17:33 53.78492 50.06507 33935 ft 463 kts 346°
2026-05-05 17:33 53.84710 50.03949 33930 ft 463 kts 346°
2026-05-05 17:34 53.90937 50.01378 33930 ft 462 kts 346°
2026-05-05 17:34 53.97171 49.98797 33926 ft 463 kts 346°
2026-05-05 17:35 54.03426 49.96197 33926 ft 462 kts 346°
2026-05-05 17:35 54.09634 49.93604 33924 ft 462 kts 346°
2026-05-05 17:36 54.15860 49.90995 33922 ft 462 kts 346°
2026-05-05 17:36 54.22056 49.88392 33926 ft 462 kts 346°
2026-05-05 17:37 54.28257 49.85777 33924 ft 462 kts 346°
2026-05-05 17:37 54.34488 49.83146 33917 ft 462 kts 347°
2026-05-05 17:38 54.40803 49.81433 33912 ft 463 kts 351°
2026-05-05 17:38 54.47150 49.79878 33922 ft 463 kts 351°
2026-05-05 17:39 54.53488 49.78336 33918 ft 463 kts 351°
2026-05-05 17:39 54.59843 49.76791 33917 ft 462 kts 351°
2026-05-05 17:40 54.66171 49.75250 33910 ft 462 kts 351°
2026-05-05 17:40 54.72535 49.73695 33913 ft 464 kts 351°
2026-05-05 17:41 54.78709 49.70947 33923 ft 463 kts 340°
2026-05-05 17:41 54.84716 49.67345 33910 ft 463 kts 340°
2026-05-05 17:42 54.90776 49.63665 33894 ft 463 kts 340°
2026-05-05 17:42 54.96807 49.59974 33900 ft 463 kts 340°
2026-05-05 17:43 55.02875 49.56243 33898 ft 463 kts 340°
2026-05-05 17:43 55.08913 49.52515 33902 ft 463 kts 340°
2026-05-05 17:44 55.14956 49.48772 33897 ft 464 kts 339°
2026-05-05 17:44 55.21099 49.45703 33902 ft 464 kts 345°
2026-05-05 17:45 55.27293 49.42933 33889 ft 464 kts 345°
2026-05-05 17:45 55.33189 49.38700 33907 ft 460 kts 327°
2026-05-05 17:46 55.37908 49.31462 33900 ft 458 kts 308°
2026-05-05 17:46 55.41037 49.21853 33896 ft 457 kts 289°
2026-05-05 17:47 55.42372 49.11000 33891 ft 459 kts 278°
2026-05-05 17:47 55.43124 48.99941 33880 ft 458 kts 276°
2026-05-05 17:48 55.43714 48.88835 33883 ft 457 kts 275°
2026-05-05 17:48 55.44227 48.77683 33890 ft 458 kts 275°
2026-05-05 17:49 55.44699 48.66582 33893 ft 456 kts 275°
2026-05-05 17:49 55.45204 48.55475 33891 ft 454 kts 279°
2026-05-05 17:50 55.46824 48.44790 33896 ft 456 kts 287°
2026-05-05 17:50 55.48647 48.34175 33895 ft 454 kts 286°
2026-05-05 17:51 55.50462 48.23624 33897 ft 452 kts 286°
2026-05-05 17:51 55.52271 48.13076 33898 ft 451 kts 286°
2026-05-05 17:52 55.54073 48.02511 33896 ft 451 kts 286°
2026-05-05 17:52 55.55862 47.91968 33895 ft 451 kts 286°
2026-05-05 17:53 55.57641 47.81430 33880 ft 451 kts 285°
2026-05-05 17:53 55.59421 47.70807 33883 ft 452 kts 286°
2026-05-05 17:54 55.61190 47.60193 33886 ft 452 kts 286°
2026-05-05 17:54 55.62946 47.49593 33884 ft 454 kts 286°
2026-05-05 17:55 55.64712 47.38878 33880 ft 454 kts 285°
2026-05-05 17:55 55.66375 47.28715 33888 ft 454 kts 285°
2026-05-05 17:56 55.68130 47.17926 33883 ft 457 kts 284°
2026-05-05 17:56 55.69873 47.07156 33889 ft 456 kts 285°
2026-05-05 17:57 55.71606 46.96382 33885 ft 459 kts 285°
2026-05-05 17:57 55.73336 46.85565 33878 ft 457 kts 285°
2026-05-05 17:58 55.75046 46.74803 33874 ft 455 kts 284°
2026-05-05 17:58 55.76731 46.64129 33876 ft 456 kts 284°
2026-05-05 17:59 55.78424 46.53333 33872 ft 454 kts 284°
2026-05-05 17:59 55.79498 46.42352 33895 ft 452 kts 273°
2026-05-05 18:00 55.79908 46.31274 33876 ft 452 kts 272°
2026-05-05 18:00 55.80284 46.20234 33878 ft 450 kts 272°
2026-05-05 18:01 55.80639 46.09189 33873 ft 450 kts 272°
2026-05-05 18:01 55.80978 45.98144 33870 ft 450 kts 272°
2026-05-05 18:02 55.81308 45.87068 33866 ft 450 kts 272°
2026-05-05 18:02 55.81625 45.76014 33880 ft 450 kts 272°
2026-05-05 18:03 55.81935 45.64885 33886 ft 450 kts 272°
2026-05-05 18:03 55.82232 45.53816 33884 ft 451 kts 272°
2026-05-05 18:04 55.82520 45.42748 33879 ft 451 kts 272°
2026-05-05 18:04 55.82796 45.31705 33882 ft 452 kts 271°
2026-05-05 18:05 55.83062 45.20704 33878 ft 452 kts 271°
2026-05-05 18:05 55.83319 45.09689 33871 ft 451 kts 271°
2026-05-05 18:06 55.83563 44.98770 33867 ft 453 kts 271°
2026-05-05 18:06 55.83807 44.87702 33876 ft 453 kts 271°
2026-05-05 18:07 55.84045 44.76547 33873 ft 452 kts 271°
2026-05-05 18:07 55.84273 44.65385 33878 ft 453 kts 271°
2026-05-05 18:08 55.84491 44.54210 33881 ft 454 kts 271°
2026-05-05 18:08 55.84699 44.43058 33877 ft 454 kts 271°
2026-05-05 18:09 55.84898 44.31863 33882 ft 453 kts 270°
2026-05-05 18:09 55.85084 44.20724 33888 ft 454 kts 270°
2026-05-05 18:10 55.85263 44.09459 33888 ft 454 kts 270°
2026-05-05 18:10 55.85430 43.98278 33893 ft 454 kts 270°
2026-05-05 18:11 55.85587 43.87125 33890 ft 451 kts 271°
2026-05-05 18:11 55.85733 43.76067 33894 ft 451 kts 271°
2026-05-05 18:12 55.85869 43.64956 33895 ft 451 kts 271°
2026-05-05 18:12 55.85995 43.53836 33893 ft 450 kts 270°
2026-05-05 18:13 55.86116 43.42820 33891 ft 448 kts 271°
2026-05-05 18:13 55.86229 43.31743 33891 ft 449 kts 270°
2026-05-05 18:14 55.86332 43.20694 33890 ft 449 kts 270°
2026-05-05 18:14 55.86426 43.09625 33895 ft 446 kts 270°
2026-05-05 18:15 55.86509 42.98698 33876 ft 445 kts 270°
2026-05-05 18:15 55.86582 42.87721 33882 ft 446 kts 270°
2026-05-05 18:16 55.86646 42.76759 33888 ft 447 kts 270°
2026-05-05 18:16 55.86700 42.65682 33885 ft 446 kts 270°
2026-05-05 18:17 55.86743 42.54728 33889 ft 447 kts 270°
2026-05-05 18:17 55.86777 42.43696 33884 ft 446 kts 270°
2026-05-05 18:18 55.86801 42.32760 33889 ft 447 kts 269°
2026-05-05 18:18 55.86816 42.21753 33884 ft 446 kts 269°
2026-05-05 18:19 55.86821 42.10726 33873 ft 448 kts 269°
2026-05-05 18:19 55.86816 41.99683 33864 ft 447 kts 269°
2026-05-05 18:20 55.86800 41.88617 33868 ft 450 kts 269°
2026-05-05 18:20 55.86762 41.77586 33868 ft 449 kts 267°
2026-05-05 18:21 55.86436 41.66517 33870 ft 448 kts 266°
2026-05-05 18:21 55.86121 41.55466 33872 ft 448 kts 269°
2026-05-05 18:22 55.87069 41.44711 33889 ft 451 kts 288°
2026-05-05 18:22 55.89725 41.34638 33879 ft 453 kts 292°
2026-05-05 18:23 55.92131 41.24426 33880 ft 450 kts 288°
2026-05-05 18:23 55.94146 41.14621 33881 ft 450 kts 287°
2026-05-05 18:24 55.96224 41.03806 33880 ft 452 kts 286°
2026-05-05 18:24 55.98190 40.93212 33886 ft 451 kts 286°
2026-05-05 18:25 56.00099 40.82736 33876 ft 449 kts 285°
2026-05-05 18:25 56.01991 40.72234 33878 ft 449 kts 285°
2026-05-05 18:26 56.03886 40.61628 33870 ft 450 kts 285°
2026-05-05 18:26 56.05764 40.51060 33872 ft 449 kts 285°
2026-05-05 18:27 56.07638 40.40440 33868 ft 447 kts 285°
2026-05-05 18:27 56.09492 40.29871 33881 ft 446 kts 284°
2026-05-05 18:28 56.12249 40.14045 33867 ft 445 kts 284°
2026-05-05 18:28 56.14082 40.03447 33868 ft 445 kts 284°
2026-05-05 18:29 56.15890 39.92923 33856 ft 443 kts 284°
2026-05-05 18:29 56.17686 39.82405 33862 ft 443 kts 284°
2026-05-05 18:30 56.19480 39.71845 33850 ft 442 kts 284°
2026-05-05 18:30 56.21257 39.61320 33854 ft 442 kts 284°
2026-05-05 18:31 56.23019 39.50819 33850 ft 441 kts 284°
2026-05-05 18:31 56.24780 39.40269 33845 ft 443 kts 284°
2026-05-05 18:32 56.26524 39.29752 33849 ft 440 kts 283°
2026-05-05 18:32 56.28254 39.19253 33847 ft 439 kts 284°
2026-05-05 18:33 56.29958 39.08859 33833 ft 438 kts 283°
2026-05-05 18:33 56.31660 38.98403 33829 ft 436 kts 284°
2026-05-05 18:34 56.33351 38.87954 33828 ft 437 kts 284°
2026-05-05 18:34 56.35039 38.77465 33826 ft 436 kts 283°
2026-05-05 18:35 56.36700 38.67077 33837 ft 435 kts 283°
2026-05-05 18:35 56.38366 38.56591 33838 ft 436 kts 283°
2026-05-05 18:36 56.40019 38.46126 33838 ft 433 kts 283°
2026-05-05 18:36 56.41660 38.35676 33836 ft 435 kts 283°
2026-05-05 18:37 56.43288 38.25232 33838 ft 433 kts 283°
2026-05-05 18:37 56.44908 38.14789 33840 ft 432 kts 283°
2026-05-05 18:38 56.46520 38.04313 33841 ft 434 kts 283°
2026-05-05 18:38 56.48119 37.93877 33841 ft 432 kts 283°
2026-05-05 18:39 56.49705 37.83449 33833 ft 433 kts 283°
2026-05-05 18:39 56.51279 37.73031 33833 ft 430 kts 283°
2026-05-05 18:40 56.52848 37.62581 33831 ft 431 kts 283°
2026-05-05 18:40 56.54404 37.52155 33834 ft 430 kts 283°
2026-05-05 18:41 56.55944 37.41772 33832 ft 429 kts 283°
2026-05-05 18:41 56.57489 37.31286 33841 ft 429 kts 282°
2026-05-05 18:42 56.59002 37.20945 33833 ft 428 kts 282°
2026-05-05 18:42 56.60520 37.10509 33833 ft 426 kts 282°
2026-05-05 18:43 56.62013 37.00167 33830 ft 427 kts 282°
2026-05-05 18:43 56.63506 36.89771 33830 ft 426 kts 282°
2026-05-05 18:44 56.64988 36.79367 33826 ft 427 kts 282°
2026-05-05 18:44 56.66459 36.68988 33819 ft 425 kts 282°
2026-05-05 18:45 56.67711 36.60085 33816 ft 427 kts 282°